Hourly Data Report for January 10, 2006

TORONTO CITY
ONTARIO

43°40'00.000" N
79°24'00.000" W
112.50 m
6158355
71508
XTO

Download Data

Hourly Data (January 2006)
Hourly Data Report for January 10, 2006
TIME
LST
Temp Definition
°C
Dew Point Definition
°C
Rel Hum Definition
%
Precip. Amount Definition
mm

Wind Dir Definition
10's deg

Wind Spd Definition
km/h
Visibility Definition
km
Stn Press Definition
kPa
Hmdx Definition


Wind Chill Definition


Weather Definition


00:00 2.6 -0.3 81   LegendMM LegendMM   101.18     LegendNANA
01:00 2.6 -0.4 81   LegendMM LegendMM   101.21     LegendNANA
02:00 2.5 -0.5 81   LegendMM LegendMM   101.27     LegendNANA
03:00 2.4 -0.8 79   LegendMM LegendMM   101.34     LegendNANA
04:00 2.4 -1.2 77   LegendMM LegendMM   101.38     LegendNANA
05:00 2.4 -3.1 67   LegendMM LegendMM   101.40     LegendNANA
06:00 2.4 -3.5 65   LegendMM LegendMM   101.46     LegendNANA
07:00 2.3 -4.0 63   LegendMM LegendMM   101.56     LegendNANA
08:00 2.1 -5.4 58   LegendMM LegendMM   101.61     LegendNANA
09:00 1.9 -5.7 57   LegendMM LegendMM   101.66     LegendNANA
10:00 2.2 -5.6 56   LegendMM LegendMM   101.68     LegendNANA
11:00 3.1 -5.2 54   LegendMM LegendMM   101.63     LegendNANA
12:00 3.5 -4.9 54   LegendMM LegendMM   101.54     LegendNANA
13:00 3.9 -3.3 59   LegendMM LegendMM   101.41     LegendNANA
14:00 3.2 -3.2 63   LegendMM LegendMM   101.38     LegendNANA
15:00 2.6 -3.3 65   LegendMM LegendMM   101.32     LegendNANA
16:00 2.5 -3.9 63   LegendMM LegendMM   101.34     LegendNANA
17:00 2.1 -4.6 61   LegendMM LegendMM   101.28     LegendNANA
18:00 1.7 -4.5 63   LegendMM LegendMM   101.27     LegendNANA
19:00 1.5 -4.0 67   LegendMM LegendMM   101.18     LegendNANA
20:00 2.3 -3.3 66   LegendMM LegendMM   101.06     LegendNANA
21:00 2.1 -2.7 70   LegendMM LegendMM   101.03     LegendNANA
22:00 2.6 -1.3 75   LegendMM LegendMM   100.95     LegendNANA
23:00 2.7 -1.1 76   LegendMM LegendMM   100.87     LegendNANA

Notes on Data Quality.

Legend

  • E = Estimated
  • M = Missing
  • NA = Not Available*
  • [empty] = Indicates an unobserved value
Date modified: